Time,TemperatureF,DewpointF,PressureIn,WindDirection,WindDirectionDegrees,WindSpeedMPH,WindSpeedGustMPH,Humidity,HourlyPrecipIn,Conditions,Clouds,dailyrainin,SoftwareType,DateUTC
2013-01-08 00:01:00,31.3,18.6,29.92,SE,138,1.0,1.0,59,0.00,,,0.02,Wunderground v.1.15,2013-01-08 08:01:00,
2013-01-08 00:06:00,31.2,18.5,29.92,SE,138,0.0,1.0,59,0.00,,,0.00,Wunderground v.1.15,2013-01-08 08:06:00,
2013-01-08 00:11:00,31.1,18.4,29.92,SE,137,1.0,2.0,59,0.00,,,0.00,Wunderground v.1.15,2013-01-08 08:11:00,
2013-01-08 00:16:00,31.0,18.7,29.92,SE,138,1.0,2.0,60,0.00,,,0.00,Wunderground v.1.15,2013-01-08 08:16:00,
2013-01-08 00:21:00,30.9,17.8,29.92,SE,138,1.0,2.0,58,0.00,,,0.00,Wunderground v.1.15,2013-01-08 08:21:00,
2013-01-08 00:26:00,30.9,20.1,29.92,SE,138,0.0,2.0,64,0.00,,,0.00,Wunderground v.1.15,2013-01-08 08:26:00,
2013-01-08 00:31:00,30.8,18.5,29.92,SE,138,0.0,2.0,60,0.00,,,0.00,Wunderground v.1.15,2013-01-08 08:31:00,
2013-01-08 00:36:00,30.6,18.7,29.92,SE,138,1.0,2.0,61,0.00,,,0.00,Wunderground v.1.15,2013-01-08 08:36:00,
2013-01-08 04:11:00,32.9,16.7,29.92,ENE,67,1.0,2.0,51,0.00,,,0.00,Wunderground v.1.15,2013-01-08 12:11:00,
2013-01-08 04:16:00,33.0,18.6,29.92,ENE,67,0.0,2.0,55,0.00,,,0.00,Wunderground v.1.15,2013-01-08 12:16:00,
2013-01-08 04:21:00,33.0,18.1,29.92,ENE,67,1.0,1.0,54,0.00,,,0.00,Wunderground v.1.15,2013-01-08 12:21:00,
2013-01-08 04:26:00,32.8,16.2,29.92,ENE,67,0.0,1.0,50,0.00,,,0.00,Wunderground v.1.15,2013-01-08 12:26:00,
2013-01-08 04:31:00,32.8,18.8,29.92,ENE,67,0.0,1.0,56,0.00,,,0.00,Wunderground v.1.15,2013-01-08 12:31:00,
2013-01-08 04:41:00,32.7,17.4,29.92,ENE,67,1.0,1.0,53,0.00,,,0.00,Wunderground v.1.15,2013-01-08 12:41:00,
2013-01-08 04:46:00,32.5,16.8,29.92,ENE,67,1.0,2.0,52,0.00,,,0.00,Wunderground v.1.15,2013-01-08 12:46:00,
2013-01-08 04:51:00,32.5,16.8,29.92,ENE,67,1.0,1.0,52,0.00,,,0.00,Wunderground v.1.15,2013-01-08 12:51:00,
2013-01-08 04:56:00,32.6,17.3,29.92,ENE,67,1.0,1.0,53,0.00,,,0.00,Wunderground v.1.15,2013-01-08 12:56:00,
2013-01-08 05:01:00,32.8,19.2,29.92,ENE,67,0.0,4.0,57,0.00,,,0.00,Wunderground v.1.15,2013-01-08 13:01:00,
2013-01-08 05:06:00,32.8,18.4,29.92,ENE,67,1.0,4.0,55,0.00,,,0.00,Wunderground v.1.15,2013-01-08 13:06:00,
2013-01-08 05:11:00,33.0,19.4,29.92,ENE,67,1.0,2.0,57,0.00,,,0.00,Wunderground v.1.15,2013-01-08 13:11:00,
2013-01-08 05:16:00,33.0,20.6,29.92,ENE,67,1.0,2.0,60,0.00,,,0.00,Wunderground v.1.15,2013-01-08 13:16:00,
2013-01-08 05:21:00,33.0,19.8,29.92,ENE,67,1.0,1.0,58,0.00,,,0.00,Wunderground v.1.15,2013-01-08 13:21:00,
2013-01-08 05:26:00,33.0,18.6,29.92,ENE,67,1.0,4.0,55,0.00,,,0.00,Wunderground v.1.15,2013-01-08 13:26:00,
2013-01-08 05:31:00,33.2,19.6,29.92,ENE,67,1.0,1.0,57,0.00,,,0.00,Wunderground v.1.15,2013-01-08 13:31:00,
2013-01-08 05:36:00,33.3,20.9,29.92,ENE,67,1.0,1.0,60,0.00,,,0.00,Wunderground v.1.15,2013-01-08 13:36:00,
2013-01-08 05:41:00,33.5,20.7,29.92,ENE,67,1.0,1.0,59,0.00,,,0.00,Wunderground v.1.15,2013-01-08 13:41:00,
2013-01-08 05:46:00,33.7,20.5,29.92,ENE,67,0.0,2.0,58,0.00,,,0.00,Wunderground v.1.15,2013-01-08 13:46:00,
2013-01-08 05:51:00,33.8,22.1,29.92,ENE,67,1.0,2.0,62,0.00,,,0.00,Wunderground v.1.15,2013-01-08 13:51:00,
2013-01-08 05:56:00,33.8,21.8,29.92,ENE,67,1.0,2.0,61,0.00,,,0.00,Wunderground v.1.15,2013-01-08 13:56:00,
2013-01-08 06:01:00,34.0,22.3,29.92,ENE,67,1.0,1.0,62,0.00,,,0.00,Wunderground v.1.15,2013-01-08 14:01:00,
2013-01-08 06:06:00,34.0,19.5,29.92,ENE,67,1.0,1.0,55,0.00,,,0.00,Wunderground v.1.15,2013-01-08 14:06:00,
2013-01-08 06:11:00,34.2,22.1,29.92,ENE,67,0.0,0.0,61,0.00,,,0.00,Wunderground v.1.15,2013-01-08 14:11:00,
2013-01-08 06:16:00,34.2,21.7,29.92,ENE,67,0.0,0.0,60,0.00,,,0.00,Wunderground v.1.15,2013-01-08 14:16:00,
2013-01-08 06:21:00,34.1,21.7,29.92,ENE,67,1.0,1.0,60,0.00,,,0.00,Wunderground v.1.15,2013-01-08 14:21:00,
2013-01-08 06:31:00,34.8,20.7,29.92,ENE,67,1.0,1.0,56,0.00,,,0.00,Wunderground v.1.15,2013-01-08 14:31:00,
2013-01-08 06:36:00,35.3,20.7,29.92,ENE,67,1.0,1.0,55,0.00,,,0.00,Wunderground v.1.15,2013-01-08 14:36:00,
2013-01-08 06:41:00,35.6,21.9,29.92,ENE,67,0.0,0.0,57,0.00,,,0.00,Wunderground v.1.15,2013-01-08 14:41:00,
2013-01-08 06:46:00,35.6,20.6,29.92,ENE,67,1.0,3.0,54,0.00,,,0.00,Wunderground v.1.15,2013-01-08 14:46:00,
2013-01-08 06:51:00,35.6,21.0,29.92,ENE,67,1.0,2.0,55,0.00,,,0.00,Wunderground v.1.15,2013-01-08 14:51:00,
2013-01-08 06:56:00,35.7,20.7,29.92,ENE,67,1.0,2.0,54,0.00,,,0.00,Wunderground v.1.15,2013-01-08 14:56:00,
2013-01-08 07:01:00,36.0,19.6,29.92,ENE,67,1.0,1.0,51,0.00,,,0.00,Wunderground v.1.15,2013-01-08 15:01:00,
2013-01-08 07:06:00,36.4,21.8,29.92,ENE,68,0.0,1.0,55,0.00,,,0.00,Wunderground v.1.15,2013-01-08 15:06:00,
2013-01-08 07:11:00,36.5,22.7,29.92,ENE,65,1.0,3.0,57,0.00,,,0.00,Wunderground v.1.15,2013-01-08 15:11:00,
2013-01-08 07:16:00,37.0,23.2,29.92,ENE,65,1.0,3.0,57,0.00,,,0.00,Wunderground v.1.15,2013-01-08 15:16:00,
2013-01-08 07:21:00,37.6,22.9,29.92,NNW,331,1.0,2.0,55,0.00,,,0.00,Wunderground v.1.15,2013-01-08 15:21:00,
2013-01-08 07:26:00,38.2,22.6,29.92,NNW,331,1.0,2.0,53,0.00,,,0.00,Wunderground v.1.15,2013-01-08 15:26:00,
2013-01-08 07:31:00,38.7,23.0,29.92,NNW,331,0.0,0.0,53,0.00,,,0.00,Wunderground v.1.15,2013-01-08 15:31:00,
2013-01-08 07:36:00,39.1,23.8,29.92,NNW,331,0.0,0.0,54,0.00,,,0.00,Wunderground v.1.15,2013-01-08 15:36:00,
2013-01-08 07:41:00,39.2,23.0,29.92,NNW,331,0.0,2.0,52,0.00,,,0.00,Wunderground v.1.15,2013-01-08 15:41:00,
2013-01-08 07:51:00,38.8,24.0,29.92,NNW,331,0.0,2.0,55,0.00,,,0.00,Wunderground v.1.15,2013-01-08 15:51:00,
2013-01-08 07:56:00,38.4,24.9,29.92,NNW,331,0.0,2.0,58,0.00,,,0.00,Wunderground v.1.15,2013-01-08 15:56:00,
2013-01-08 08:01:00,37.9,23.2,29.92,NNW,331,0.0,4.0,55,0.00,,,0.00,Wunderground v.1.15,2013-01-08 16:01:00,
2013-01-08 08:06:00,37.7,23.0,29.92,NNW,331,0.0,4.0,55,0.00,,,0.00,Wunderground v.1.15,2013-01-08 16:06:00,
2013-01-08 08:11:00,37.5,23.6,29.92,NNW,331,0.0,0.0,57,0.00,,,0.00,Wunderground v.1.15,2013-01-08 16:11:00,
2013-01-08 08:16:00,37.2,24.6,29.92,NNW,331,0.0,3.0,60,0.00,,,0.00,Wunderground v.1.15,2013-01-08 16:16:00,
2013-01-08 08:21:00,36.8,22.1,29.92,NNW,331,1.0,1.0,55,0.00,,,0.00,Wunderground v.1.15,2013-01-08 16:21:00,
2013-01-08 08:26:00,36.6,22.4,29.92,NNW,331,0.0,1.0,56,0.00,,,0.00,Wunderground v.1.15,2013-01-08 16:26:00,
2013-01-08 08:31:00,36.4,23.0,29.92,NNW,331,0.0,1.0,58,0.00,,,0.00,Wunderground v.1.15,2013-01-08 16:31:00,
2013-01-08 08:36:00,36.0,22.2,29.92,NNW,331,1.0,2.0,57,0.00,,,0.00,Wunderground v.1.15,2013-01-08 16:36:00,
2013-01-08 08:41:00,35.8,22.0,29.92,NNW,331,1.0,1.0,57,0.00,,,0.00,Wunderground v.1.15,2013-01-08 16:41:00,
2013-01-08 08:46:00,35.9,21.7,29.92,NNW,331,1.0,2.0,56,0.00,,,0.00,Wunderground v.1.15,2013-01-08 16:46:00,
2013-01-08 08:56:00,36.2,20.7,29.92,NNW,331,1.0,2.0,53,0.00,,,0.00,Wunderground v.1.15,2013-01-08 16:56:00,
2013-01-08 09:01:00,36.6,21.5,29.92,NNW,331,0.0,3.0,54,0.00,,,0.00,Wunderground v.1.15,2013-01-08 17:01:00,
2013-01-08 09:11:00,37.8,22.2,29.92,NNW,331,1.0,1.0,53,0.00,,,0.00,Wunderground v.1.15,2013-01-08 17:11:00,
2013-01-08 09:16:00,38.6,21.5,29.92,NNW,331,0.0,1.0,50,0.00,,,0.00,Wunderground v.1.15,2013-01-08 17:16:00,
2013-01-08 09:21:00,40.1,23.9,29.92,NNW,331,0.0,0.0,52,0.00,,,0.00,Wunderground v.1.15,2013-01-08 17:21:00,
2013-01-08 09:26:00,41.8,24.0,29.92,NNW,331,0.0,0.0,49,0.00,,,0.00,Wunderground v.1.15,2013-01-08 17:26:00,
2013-01-08 09:31:00,43.1,24.2,29.92,NNW,331,0.0,0.0,47,0.00,,,0.00,Wunderground v.1.15,2013-01-08 17:31:00,
2013-01-08 09:36:00,44.2,24.2,29.92,NNW,331,0.0,0.0,45,0.00,,,0.00,Wunderground v.1.15,2013-01-08 17:36:00,
2013-01-08 09:41:00,44.7,25.2,29.92,NNW,331,0.0,0.0,46,0.00,,,0.00,Wunderground v.1.15,2013-01-08 17:41:00,
2013-01-08 09:46:00,45.0,25.4,29.92,NNW,331,0.0,0.0,46,0.00,,,0.00,Wunderground v.1.15,2013-01-08 17:46:00,
2013-01-08 09:51:00,45.1,23.3,29.92,NNW,331,0.0,0.0,42,0.00,,,0.00,Wunderground v.1.15,2013-01-08 17:51:00,
2013-01-08 09:56:00,45.6,24.9,29.92,NNW,331,0.0,0.0,44,0.00,,,0.00,Wunderground v.1.15,2013-01-08 17:56:00,
2013-01-08 10:01:00,45.8,26.2,29.92,NNW,331,0.0,3.0,46,0.00,,,0.00,Wunderground v.1.15,2013-01-08 18:01:00,
2013-01-08 10:06:00,45.7,25.5,29.92,NNW,331,0.0,3.0,45,0.00,,,0.00,Wunderground v.1.15,2013-01-08 18:06:00,
2013-01-08 10:11:00,45.6,24.9,29.92,NNW,331,0.0,0.0,44,0.00,,,0.00,Wunderground v.1.15,2013-01-08 18:11:00,
2013-01-08 10:16:00,45.9,23.5,29.92,NNW,328,0.0,0.0,41,0.00,,,0.00,Wunderground v.1.15,2013-01-08 18:16:00,
2013-01-08 10:21:00,46.8,22.5,29.92,NNW,331,0.0,0.0,38,0.00,,,0.00,Wunderground v.1.15,2013-01-08 18:21:00,
2013-01-08 10:26:00,48.1,24.9,29.92,South,186,0.0,0.0,40,0.00,,,0.00,Wunderground v.1.15,2013-01-08 18:26:00,
2013-01-08 10:36:00,50.4,24.4,29.92,SW,225,1.0,1.0,36,0.00,,,0.00,Wunderground v.1.15,2013-01-08 18:36:00,
2013-01-08 10:41:00,51.5,23.3,29.92,ESE,123,2.0,2.0,33,0.00,,,0.00,Wunderground v.1.15,2013-01-08 18:41:00,
2013-01-08 10:46:00,52.8,23.7,29.92,ESE,112,1.0,2.0,32,0.00,,,0.00,Wunderground v.1.15,2013-01-08 18:46:00,
2013-01-08 10:51:00,53.7,24.5,29.92,South,190,1.0,2.0,32,0.00,,,0.00,Wunderground v.1.15,2013-01-08 18:51:00,
2013-01-08 10:56:00,53.9,26.1,29.92,South,172,1.0,2.0,34,0.00,,,0.00,Wunderground v.1.15,2013-01-08 18:56:00,
2013-01-08 11:01:00,54.1,25.6,29.92,WSW,246,2.0,2.0,33,0.00,,,0.00,Wunderground v.1.15,2013-01-08 19:01:00,
2013-01-08 11:06:00,54.7,26.1,29.92,WSW,245,1.0,2.0,33,0.00,,,0.00,Wunderground v.1.15,2013-01-08 19:06:00,
2013-01-08 11:11:00,55.5,28.3,29.92,WSW,246,0.0,0.0,35,0.00,,,0.00,Wunderground v.1.15,2013-01-08 19:11:00,
2013-01-08 11:16:00,56.3,29.0,29.92,South,178,0.0,1.0,35,0.00,,,0.00,Wunderground v.1.15,2013-01-08 19:16:00,
2013-01-08 11:21:00,56.5,28.4,29.92,SW,225,1.0,1.0,34,0.00,,,0.00,Wunderground v.1.15,2013-01-08 19:21:00,
2013-01-08 11:26:00,56.4,29.7,29.92,SW,233,1.0,1.0,36,0.00,,,0.00,Wunderground v.1.15,2013-01-08 19:26:00,
2013-01-08 11:31:00,56.3,29.7,29.92,WNW,298,1.0,1.0,36,0.00,,,0.00,Wunderground v.1.15,2013-01-08 19:31:00,
2013-01-08 11:36:00,56.3,29.0,29.92,South,177,1.0,1.0,35,0.00,,,0.00,Wunderground v.1.15,2013-01-08 19:36:00,
2013-01-08 11:41:00,55.9,29.3,29.92,West,259,0.0,1.0,36,0.00,,,0.00,Wunderground v.1.15,2013-01-08 19:41:00,
2013-01-08 11:51:00,54.4,28.6,29.92,South,189,1.0,1.0,37,0.00,,,0.00,Wunderground v.1.15,2013-01-08 19:51:00,
2013-01-08 11:56:00,53.9,28.2,29.92,ESE,115,0.0,1.0,37,0.00,,,0.00,Wunderground v.1.15,2013-01-08 19:56:00,
2013-01-08 12:01:00,53.5,27.2,29.92,ESE,115,1.0,1.0,36,0.00,,,0.00,Wunderground v.1.15,2013-01-08 20:01:00,
2013-01-08 12:06:00,53.3,27.7,29.92,ESE,115,0.0,1.0,37,0.00,,,0.00,Wunderground v.1.15,2013-01-08 20:06:00,
2013-01-08 12:11:00,53.2,28.2,29.92,ESE,116,0.0,0.0,38,0.00,,,0.00,Wunderground v.1.15,2013-01-08 20:11:00,
2013-01-08 12:16:00,53.1,28.1,29.92,West,275,1.0,1.0,38,0.00,,,0.00,Wunderground v.1.15,2013-01-08 20:16:00,
2013-01-08 12:21:00,53.0,28.7,29.92,SSW,205,1.0,1.0,39,0.00,,,0.00,Wunderground v.1.15,2013-01-08 20:21:00,
2013-01-08 12:26:00,53.0,27.4,29.92,SSW,204,1.0,1.0,37,0.00,,,0.00,Wunderground v.1.15,2013-01-08 20:26:00,
2013-01-08 12:31:00,52.9,26.6,29.92,SW,229,0.0,0.0,36,0.00,,,0.00,Wunderground v.1.15,2013-01-08 20:31:00,
2013-01-08 12:36:00,52.8,27.9,29.92,SW,229,0.0,0.0,38,0.00,,,0.00,Wunderground v.1.15,2013-01-08 20:36:00,
2013-01-08 12:41:00,52.6,27.0,29.92,WSW,238,0.0,4.0,37,0.00,,,0.00,Wunderground v.1.15,2013-01-08 20:41:00,
2013-01-08 12:51:00,52.6,27.0,29.92,SSE,165,1.0,1.0,37,0.00,,,0.00,Wunderground v.1.15,2013-01-08 20:51:00,
2013-01-08 12:56:00,52.8,27.9,29.92,SSE,166,1.0,1.0,38,0.00,,,0.00,Wunderground v.1.15,2013-01-08 20:56:00,
2013-01-08 13:01:00,53.1,26.8,29.92,South,177,0.0,4.0,36,0.00,,,0.00,Wunderground v.1.15,2013-01-08 21:01:00,
2013-01-08 13:06:00,53.4,25.7,29.92,South,188,0.0,4.0,34,0.00,,,0.00,Wunderground v.1.15,2013-01-08 21:06:00,
2013-01-08 13:11:00,53.8,26.1,29.92,WSW,255,0.0,0.0,34,0.00,,,0.00,Wunderground v.1.15,2013-01-08 21:11:00,
2013-01-08 13:16:00,54.3,27.2,29.92,SW,215,0.0,0.0,35,0.00,,,0.00,Wunderground v.1.15,2013-01-08 21:16:00,
2013-01-08 13:21:00,55.1,26.5,29.92,SW,216,0.0,0.0,33,0.00,,,0.00,Wunderground v.1.15,2013-01-08 21:21:00,
2013-01-08 13:26:00,55.8,27.1,29.92,SW,224,0.0,0.0,33,0.00,,,0.00,Wunderground v.1.15,2013-01-08 21:26:00,
2013-01-08 13:31:00,56.7,27.9,29.92,West,267,1.0,1.0,33,0.00,,,0.00,Wunderground v.1.15,2013-01-08 21:31:00,
2013-01-08 13:36:00,57.1,27.5,29.92,SW,217,1.0,1.0,32,0.00,,,0.00,Wunderground v.1.15,2013-01-08 21:36:00,
2013-01-08 13:41:00,57.3,27.7,29.92,SSE,162,1.0,5.0,32,0.00,,,0.00,Wunderground v.1.15,2013-01-08 21:41:00,
2013-01-08 13:46:00,57.2,27.6,29.92,South,190,1.0,5.0,32,0.00,,,0.00,Wunderground v.1.15,2013-01-08 21:46:00,
2013-01-08 13:51:00,57.7,27.2,29.92,South,190,1.0,1.0,31,0.00,,,0.00,Wunderground v.1.15,2013-01-08 21:51:00,
2013-01-08 13:56:00,58.2,28.5,29.92,South,190,0.0,1.0,32,0.00,,,0.00,Wunderground v.1.15,2013-01-08 21:56:00,
2013-01-08 14:01:00,58.6,28.0,29.92,West,273,0.0,5.0,31,0.00,,,0.00,Wunderground v.1.15,2013-01-08 22:01:00,
2013-01-08 14:06:00,58.7,28.1,29.92,West,273,0.0,5.0,31,0.00,,,0.00,Wunderground v.1.15,2013-01-08 22:06:00,
2013-01-08 14:11:00,58.9,28.3,29.92,South,184,0.0,0.0,31,0.00,,,0.00,Wunderground v.1.15,2013-01-08 22:11:00,
2013-01-08 14:16:00,59.0,28.4,29.92,South,185,0.0,0.0,31,0.00,,,0.00,Wunderground v.1.15,2013-01-08 22:16:00,
2013-01-08 14:21:00,58.8,26.6,29.92,SE,146,0.0,0.0,29,0.00,,,0.00,Wunderground v.1.15,2013-01-08 22:21:00,
2013-01-08 14:26:00,58.1,26.0,29.92,SE,146,0.0,0.0,29,0.00,,,0.00,Wunderground v.1.15,2013-01-08 22:26:00,
2013-01-08 14:31:00,57.5,27.1,29.92,SE,146,0.0,0.0,31,0.00,,,0.00,Wunderground v.1.15,2013-01-08 22:31:00,
2013-01-08 14:36:00,56.6,26.3,29.92,South,177,0.0,0.0,31,0.00,,,0.00,Wunderground v.1.15,2013-01-08 22:36:00,
2013-01-08 14:41:00,56.0,25.8,29.92,South,178,1.0,1.0,31,0.00,,,0.00,Wunderground v.1.15,2013-01-08 22:41:00,
2013-01-08 14:46:00,55.8,27.1,29.92,South,178,0.0,1.0,33,0.00,,,0.00,Wunderground v.1.15,2013-01-08 22:46:00,
2013-01-08 14:56:00,55.5,26.8,29.92,SSE,168,0.0,2.0,33,0.00,,,0.00,Wunderground v.1.15,2013-01-08 22:56:00,
2013-01-08 15:01:00,55.6,25.4,29.92,SE,144,0.0,5.0,31,0.00,,,0.00,Wunderground v.1.15,2013-01-08 23:01:00,
2013-01-08 15:06:00,55.7,25.5,29.92,West,279,1.0,5.0,31,0.00,,,0.00,Wunderground v.1.15,2013-01-08 23:06:00,
2013-01-08 15:11:00,55.3,24.4,29.92,South,172,1.0,1.0,30,0.00,,,0.00,Wunderground v.1.15,2013-01-08 23:11:00,
2013-01-08 15:16:00,55.4,25.2,29.92,South,172,0.0,1.0,31,0.00,,,0.00,Wunderground v.1.15,2013-01-08 23:16:00,
2013-01-08 15:21:00,55.6,26.2,29.92,South,172,0.0,0.0,32,0.00,,,0.00,Wunderground v.1.15,2013-01-08 23:21:00,
2013-01-08 15:26:00,55.8,24.8,29.92,South,172,0.0,0.0,30,0.00,,,0.00,Wunderground v.1.15,2013-01-08 23:26:00,
2013-01-08 15:31:00,55.6,25.4,29.92,South,172,0.0,0.0,31,0.00,,,0.00,Wunderground v.1.15,2013-01-08 23:31:00,
2013-01-08 15:36:00,54.9,24.8,29.92,South,172,0.0,0.0,31,0.00,,,0.00,Wunderground v.1.15,2013-01-08 23:36:00,
2013-01-08 15:41:00,54.0,24.8,29.92,South,172,0.0,0.0,32,0.00,,,0.00,Wunderground v.1.15,2013-01-08 23:41:00,
2013-01-08 15:46:00,53.4,25.7,29.92,South,172,0.0,0.0,34,0.00,,,0.00,Wunderground v.1.15,2013-01-08 23:46:00,
2013-01-08 15:51:00,52.6,27.7,29.92,South,172,0.0,0.0,38,0.00,,,0.00,Wunderground v.1.15,2013-01-08 23:51:00,
2013-01-08 15:56:00,51.5,27.9,29.92,South,172,0.0,0.0,40,0.00,,,0.00,Wunderground v.1.15,2013-01-08 23:56:00,
2013-01-08 16:01:00,50.1,29.0,29.92,South,172,0.0,6.0,44,0.00,,,0.00,Wunderground v.1.15,2013-01-09 00:01:00,
2013-01-08 16:06:00,49.2,28.2,29.92,South,172,0.0,6.0,44,0.00,,,0.00,Wunderground v.1.15,2013-01-09 00:06:00,
2013-01-08 16:11:00,48.5,28.1,29.92,South,172,0.0,0.0,45,0.00,,,0.00,Wunderground v.1.15,2013-01-09 00:11:00,
2013-01-08 16:16:00,47.8,28.0,29.92,South,172,0.0,0.0,46,0.00,,,0.00,Wunderground v.1.15,2013-01-09 00:16:00,
2013-01-08 16:21:00,47.1,28.9,29.92,South,172,0.0,0.0,49,0.00,,,0.00,Wunderground v.1.15,2013-01-09 00:21:00,
2013-01-08 16:26:00,46.4,29.2,29.92,South,172,0.0,0.0,51,0.00,,,0.00,Wunderground v.1.15,2013-01-09 00:26:00,
2013-01-08 16:31:00,45.6,29.9,29.92,South,172,0.0,0.0,54,0.00,,,0.00,Wunderground v.1.15,2013-01-09 00:31:00,
2013-01-08 16:36:00,44.7,29.5,29.92,South,172,0.0,0.0,55,0.00,,,0.00,Wunderground v.1.15,2013-01-09 00:36:00,
2013-01-08 16:41:00,44.0,29.3,29.92,South,172,0.0,0.0,56,0.00,,,0.00,Wunderground v.1.15,2013-01-09 00:41:00,
2013-01-08 16:46:00,43.3,29.5,29.92,South,172,0.0,0.0,58,0.00,,,0.00,Wunderground v.1.15,2013-01-09 00:46:00,
2013-01-08 16:51:00,42.5,29.6,29.92,South,172,0.0,0.0,60,0.00,,,0.00,Wunderground v.1.15,2013-01-09 00:51:00,
2013-01-08 16:56:00,41.9,29.0,29.92,South,172,0.0,0.0,60,0.00,,,0.00,Wunderground v.1.15,2013-01-09 00:56:00,
2013-01-08 17:01:00,41.3,28.9,29.92,South,172,1.0,1.0,61,0.00,,,0.00,Wunderground v.1.15,2013-01-09 01:01:00,
2013-01-08 17:11:00,40.8,28.4,29.92,ESE,122,1.0,2.0,61,0.00,,,0.00,Wunderground v.1.15,2013-01-09 01:11:00,
2013-01-08 17:16:00,40.6,28.6,29.92,ESE,120,1.0,3.0,62,0.00,,,0.00,Wunderground v.1.15,2013-01-09 01:16:00,
2013-01-08 17:21:00,40.1,28.5,29.92,ESE,110,2.0,2.0,63,0.00,,,0.00,Wunderground v.1.15,2013-01-09 01:21:00,
2013-01-08 17:26:00,39.7,28.5,29.92,ESE,107,2.0,2.0,64,0.00,,,0.00,Wunderground v.1.15,2013-01-09 01:26:00,
2013-01-08 17:31:00,39.3,28.5,29.92,ESE,106,1.0,2.0,65,0.00,,,0.00,Wunderground v.1.15,2013-01-09 01:31:00,
2013-01-08 17:36:00,39.0,27.8,29.92,ESE,105,1.0,2.0,64,0.00,,,0.00,Wunderground v.1.15,2013-01-09 01:36:00,
2013-01-08 17:41:00,38.8,28.4,29.92,ESE,105,1.0,2.0,66,0.00,,,0.00,Wunderground v.1.15,2013-01-09 01:41:00,
2013-01-08 17:51:00,38.3,28.3,29.92,ESE,102,2.0,2.0,67,0.00,,,0.00,Wunderground v.1.15,2013-01-09 01:51:00,
2013-01-08 17:56:00,38.0,28.7,29.92,East,101,2.0,3.0,69,0.00,,,0.00,Wunderground v.1.15,2013-01-09 01:56:00,
2013-01-08 18:01:00,37.8,27.8,29.92,East,98,2.0,3.0,67,0.00,,,0.00,Wunderground v.1.15,2013-01-09 02:01:00,
2013-01-08 18:11:00,37.7,27.7,29.92,East,98,2.0,2.0,67,0.00,,,0.00,Wunderground v.1.15,2013-01-09 02:11:00,
2013-01-08 18:16:00,37.6,28.0,29.92,East,98,2.0,2.0,68,0.00,,,0.00,Wunderground v.1.15,2013-01-09 02:16:00,
2013-01-08 18:21:00,37.7,28.8,29.92,East,98,2.0,2.0,70,0.00,,,0.00,Wunderground v.1.15,2013-01-09 02:21:00,
2013-01-08 18:26:00,37.6,28.7,29.92,East,98,2.0,2.0,70,0.00,,,0.00,Wunderground v.1.15,2013-01-09 02:26:00,
2013-01-08 18:31:00,37.4,28.5,29.92,East,98,2.0,2.0,70,0.00,,,0.00,Wunderground v.1.15,2013-01-09 02:31:00,
2013-01-08 18:36:00,37.2,28.3,29.92,East,96,2.0,3.0,70,0.00,,,0.00,Wunderground v.1.15,2013-01-09 02:36:00,
2013-01-08 18:41:00,37.1,27.9,29.92,East,96,2.0,3.0,69,0.00,,,0.00,Wunderground v.1.15,2013-01-09 02:41:00,
2013-01-08 18:46:00,37.2,28.0,29.92,East,96,2.0,3.0,69,0.00,,,0.00,Wunderground v.1.15,2013-01-09 02:46:00,
2013-01-08 18:51:00,37.2,28.3,29.92,East,96,2.0,2.0,70,0.00,,,0.00,Wunderground v.1.15,2013-01-09 02:51:00,
2013-01-08 18:56:00,37.0,28.1,29.92,East,96,2.0,2.0,70,0.00,,,0.00,Wunderground v.1.15,2013-01-09 02:56:00,
2013-01-08 19:01:00,36.9,28.0,29.92,East,96,2.0,4.0,70,0.00,,,0.00,Wunderground v.1.15,2013-01-09 03:01:00,
2013-01-08 19:06:00,36.8,28.3,29.92,East,96,2.0,4.0,71,0.00,,,0.00,Wunderground v.1.15,2013-01-09 03:06:00,
2013-01-08 19:11:00,36.7,28.2,29.92,East,96,2.0,2.0,71,0.00,,,0.00,Wunderground v.1.15,2013-01-09 03:11:00,
2013-01-08 19:16:00,36.8,27.9,29.92,East,96,2.0,3.0,70,0.00,,,0.00,Wunderground v.1.15,2013-01-09 03:16:00,
2013-01-08 19:21:00,36.9,28.4,29.92,East,96,1.0,4.0,71,0.00,,,0.00,Wunderground v.1.15,2013-01-09 03:21:00,
2013-01-08 19:26:00,36.9,28.0,29.92,East,94,2.0,4.0,70,0.00,,,0.00,Wunderground v.1.15,2013-01-09 03:26:00,
2013-01-08 19:31:00,37.0,28.5,29.92,East,94,2.0,2.0,71,0.00,,,0.00,Wunderground v.1.15,2013-01-09 03:31:00,
2013-01-08 19:36:00,37.0,28.1,29.92,East,94,2.0,3.0,70,0.00,,,0.00,Wunderground v.1.15,2013-01-09 03:36:00,
2013-01-08 19:41:00,37.0,28.1,29.92,East,94,2.0,2.0,70,0.00,,,0.00,Wunderground v.1.15,2013-01-09 03:41:00,
2013-01-08 19:46:00,37.0,28.5,29.92,East,94,2.0,2.0,71,0.00,,,0.00,Wunderground v.1.15,2013-01-09 03:46:00,
2013-01-08 19:51:00,37.1,28.2,29.92,East,94,1.0,1.0,70,0.00,,,0.00,Wunderground v.1.15,2013-01-09 03:51:00,
2013-01-08 19:56:00,37.3,28.4,29.92,East,94,1.0,2.0,70,0.00,,,0.00,Wunderground v.1.15,2013-01-09 03:56:00,
2013-01-08 20:01:00,37.5,28.2,29.92,East,94,1.0,1.0,69,0.00,,,0.00,Wunderground v.1.15,2013-01-09 04:01:00,
2013-01-08 20:26:00,38.1,28.1,29.92,East,94,1.0,1.0,67,0.00,,,0.00,Wunderground v.1.15,2013-01-09 04:26:00,
2013-01-08 20:36:00,38.2,27.8,29.92,East,92,1.0,1.0,66,0.00,,,0.00,Wunderground v.1.15,2013-01-09 04:36:00,
2013-01-08 20:41:00,38.3,27.9,29.92,East,92,1.0,1.0,66,0.00,,,0.00,Wunderground v.1.15,2013-01-09 04:41:00,
2013-01-08 20:46:00,38.6,28.9,29.92,East,92,1.0,2.0,68,0.00,,,0.00,Wunderground v.1.15,2013-01-09 04:46:00,
2013-01-08 20:51:00,38.6,28.9,29.92,East,92,1.0,2.0,68,0.00,,,0.00,Wunderground v.1.15,2013-01-09 04:51:00,
2013-01-08 20:56:00,38.5,29.2,29.92,East,92,1.0,4.0,69,0.00,,,0.00,Wunderground v.1.15,2013-01-09 04:56:00,
2013-01-08 21:01:00,38.3,29.0,29.92,East,92,2.0,4.0,69,0.00,,,0.00,Wunderground v.1.15,2013-01-09 05:01:00,
2013-01-08 21:06:00,38.1,29.2,29.92,East,92,2.0,4.0,70,0.00,,,0.00,Wunderground v.1.15,2013-01-09 05:06:00,
2013-01-08 21:11:00,37.9,29.0,29.92,East,92,2.0,2.0,70,0.00,,,0.00,Wunderground v.1.15,2013-01-09 05:11:00,
2013-01-08 21:16:00,38.0,29.1,29.92,East,92,2.0,3.0,70,0.00,,,0.00,Wunderground v.1.15,2013-01-09 05:16:00,
2013-01-08 21:21:00,38.0,29.1,29.92,East,92,2.0,2.0,70,0.00,,,0.00,Wunderground v.1.15,2013-01-09 05:21:00,
2013-01-08 21:26:00,38.0,29.1,29.92,East,92,2.0,2.0,70,0.00,,,0.00,Wunderground v.1.15,2013-01-09 05:26:00,
2013-01-08 21:31:00,38.1,28.5,29.92,East,92,2.0,2.0,68,0.00,,,0.00,Wunderground v.1.15,2013-01-09 05:31:00,
2013-01-08 21:36:00,38.1,28.8,29.92,East,92,2.0,2.0,69,0.00,,,0.00,Wunderground v.1.15,2013-01-09 05:36:00,
2013-01-08 21:41:00,37.9,29.3,29.92,East,92,3.0,3.0,71,0.00,,,0.00,Wunderground v.1.15,2013-01-09 05:41:00,
2013-01-08 21:46:00,37.7,29.5,29.92,East,91,2.0,3.0,72,0.00,,,0.00,Wunderground v.1.15,2013-01-09 05:46:00,
2013-01-08 21:51:00,37.5,28.6,29.92,East,91,2.0,3.0,70,0.00,,,0.00,Wunderground v.1.15,2013-01-09 05:51:00,
2013-01-08 21:56:00,37.5,28.9,29.92,East,90,3.0,3.0,71,0.00,,,0.00,Wunderground v.1.15,2013-01-09 05:56:00,
2013-01-08 22:01:00,37.6,29.4,29.92,East,86,3.0,3.0,72,0.00,,,0.00,Wunderground v.1.15,2013-01-09 06:01:00,
2013-01-08 22:06:00,37.5,28.9,29.92,East,86,2.0,3.0,71,0.00,,,0.00,Wunderground v.1.15,2013-01-09 06:06:00,
2013-01-08 22:11:00,37.5,29.3,29.92,East,84,2.0,2.0,72,0.00,,,0.00,Wunderground v.1.15,2013-01-09 06:11:00,
2013-01-08 22:16:00,37.6,29.0,29.92,East,83,2.0,3.0,71,0.00,,,0.00,Wunderground v.1.15,2013-01-09 06:16:00,
2013-01-08 22:26:00,38.2,28.9,29.92,NNE,22,2.0,2.0,69,0.00,,,0.00,Wunderground v.1.15,2013-01-09 06:26:00,
2013-01-08 22:31:00,39.4,29.0,29.92,NE,39,1.0,4.0,66,0.00,,,0.00,Wunderground v.1.15,2013-01-09 06:31:00,
2013-01-08 22:36:00,41.1,29.1,29.92,NNE,21,1.0,4.0,62,0.00,,,0.00,Wunderground v.1.15,2013-01-09 06:36:00,
2013-01-08 22:41:00,41.9,29.4,29.92,NNE,30,2.0,4.0,61,0.00,,,0.00,Wunderground v.1.15,2013-01-09 06:41:00,
2013-01-08 22:46:00,42.7,28.9,29.92,NNE,31,2.0,4.0,58,0.00,,,0.00,Wunderground v.1.15,2013-01-09 06:46:00,
2013-01-08 22:51:00,43.4,30.0,29.92,NNE,31,2.0,3.0,59,0.00,,,0.00,Wunderground v.1.15,2013-01-09 06:51:00,
2013-01-08 22:56:00,43.2,30.2,29.92,NNE,31,2.0,3.0,60,0.00,,,0.00,Wunderground v.1.15,2013-01-09 06:56:00,
2013-01-08 23:01:00,42.6,30.1,29.92,NNE,31,2.0,2.0,61,0.00,,,0.00,Wunderground v.1.15,2013-01-09 07:01:00,
2013-01-08 23:06:00,41.8,29.7,29.92,NNE,26,1.0,2.0,62,0.00,,,0.00,Wunderground v.1.15,2013-01-09 07:06:00,
2013-01-08 23:11:00,41.3,29.3,29.92,NNE,26,1.0,2.0,62,0.00,,,0.00,Wunderground v.1.15,2013-01-09 07:11:00,
2013-01-08 23:16:00,41.0,29.0,29.92,NNE,26,1.0,2.0,62,0.00,,,0.00,Wunderground v.1.15,2013-01-09 07:16:00,
2013-01-08 23:21:00,40.7,29.8,29.92,NNE,24,2.0,3.0,65,0.00,,,0.00,Wunderground v.1.15,2013-01-09 07:21:00,
2013-01-08 23:26:00,40.1,29.3,29.92,NNE,28,2.0,3.0,65,0.00,,,0.00,Wunderground v.1.15,2013-01-09 07:26:00,
2013-01-08 23:31:00,39.7,29.6,29.92,NNE,28,3.0,3.0,67,0.00,,,0.00,Wunderground v.1.15,2013-01-09 07:31:00,
2013-01-08 23:36:00,39.4,29.7,29.92,NNE,28,3.0,3.0,68,0.00,,,0.00,Wunderground v.1.15,2013-01-09 07:36:00,
2013-01-08 23:41:00,39.0,29.7,29.92,NNE,28,3.0,3.0,69,0.00,,,0.00,Wunderground v.1.15,2013-01-09 07:41:00,
2013-01-08 23:46:00,38.7,29.4,29.92,NNE,28,3.0,4.0,69,0.00,,,0.00,Wunderground v.1.15,2013-01-09 07:46:00,
2013-01-08 23:51:00,38.5,29.6,29.92,NNE,28,3.0,4.0,70,0.00,,,0.00,Wunderground v.1.15,2013-01-09 07:51:00,
2013-01-08 23:56:00,38.3,29.7,29.92,NNE,28,3.0,4.0,71,0.00,,,0.00,Wunderground v.1.15,2013-01-09 07:56:00,